FW1003 Weather Reports


Display with metric or nautical units.
time (UTC)temp
F
wind
direction
speed
MPH
gust
MPH
rain 1hr
in
rain 24hr
in
rain mn
in
humidity
%
barometer
mb
20260506001503 55 335 0.0 0.0 0.00 0.07 0.00 73 1017.8
20260506000108 55 337 0.0 1.0 0.00 0.07 0.00 73 1018.1
20260505234557 55 337 0.0 0.0 0.00 0.07 0.00 72 1018.1
20260505233109 56 337 0.0 0.0 0.00 0.07 0.00 71 1018.1
20260505231552 56 337 0.0 0.0 0.00 0.07 0.00 71 1018.2
20260505230050 56 337 0.0 0.0 0.00 0.07 0.00 70 1018.3
20260505224547 57 337 0.0 0.0 0.00 0.07 0.00 69 1018.3
20260505223044 58 337 0.0 0.0 0.00 0.07 0.00 69 1018.3
20260505221538 58 337 0.0 0.0 0.00 0.07 0.00 69 1018.4
20260505220040 59 337 0.0 0.0 0.00 0.07 0.00 67 1018.5
20260505214535 59 337 0.0 2.0 0.00 0.07 0.00 67 1018.5
20260505213033 60 336 1.0 2.0 0.00 0.07 0.00 67 1018.6
20260505211529 60 336 0.0 2.0 0.00 0.07 0.00 65 1018.7
20260505210012 60 336 0.0 0.0 0.00 0.07 0.07 65 1018.6
20260505204513 60 336 0.0 3.0 0.00 0.07 0.07 64 1018.5
20260505203023 61 337 0.0 0.0 0.00 0.07 0.07 63 1018.6
20260505201507 61 336 0.0 1.0 0.00 0.07 0.07 62 1018.5
20260505200004 61 328 0.0 0.0 0.00 0.07 0.07 62 1018.4
20260505194502 61 328 0.0 0.0 0.00 0.07 0.07 63 1018.5
20260505193001 62 328 0.0 8.0 0.00 0.07 0.07 62 1018.6
20260505191607 62 58 0.0 3.0 0.00 0.07 0.07 63 1018.5
20260505190056 62 59 0.0 3.0 0.00 0.07 0.07 62 1018.6
20260505184601 62 59 0.0 3.0 0.00 0.07 0.07 62 1018.6
20260505183054 62 65 0.0 2.0 0.00 0.07 0.07 62 1018.6
20260505181552 63 65 0.0 2.0 0.00 0.07 0.07 62 1018.5
20260505180048 63 63 0.0 2.0 0.00 0.07 0.07 63 1018.5
20260505174546 63 63 0.0 5.0 0.00 0.07 0.07 63 1018.4
20260505173046 64 62 1.0 5.0 0.00 0.07 0.07 64 1018.2
20260505171549 65 136 1.0 4.0 0.00 0.07 0.07 63 1018.0
20260505170028 65 157 0.0 5.0 0.00 0.07 0.07 62 1017.8
20260505164526 65 175 1.0 8.0 0.00 0.07 0.07 61 1017.6
20260505163031 65 61 1.0 5.0 0.00 0.07 0.07 60 1017.6
20260505161524 66 360 2.0 8.0 0.00 0.07 0.07 59 1017.5
20260505153024 66 174 1.0 7.0 0.00 0.07 0.07 58 1017.7
20260505151520 66 159 0.0 6.0 0.00 0.07 0.07 58 1017.7
20260505124550 66 360 1.0 4.0 0.00 0.07 0.07 60 1017.2
20260505123058 66 131 1.0 8.0 0.00 0.07 0.07 61 1017.2
20260505121549 66 123 1.0 5.0 0.00 0.07 0.07 63 1017.2
20260505120054 66 360 2.0 8.0 0.00 0.07 0.07 67 1017.1
20260505114549 64 360 3.0 9.0 0.00 0.07 0.07 69 1017.2
20260505113050 64 360 4.0 10.0 0.01 0.07 0.07 69 1017.1
20260505111545 64 105 0.0 8.0 0.01 0.07 0.07 70 1017.1
20260505101537 63 360 6.0 12.0 0.04 0.06 0.06 74 1017.2
20260505100034 63 159 1.0 3.0 0.06 0.06 0.06 75 1017.2
20260505094532 63 158 0.0 2.0 0.06 0.06 0.06 73 1017.2
20260505093030 63 113 1.0 5.0 0.06 0.06 0.06 72 1017.5
20260505091530 64 163 2.0 8.0 0.02 0.02 0.02 70 1017.5
20260505090021 65 239 2.0 8.0 0.01 0.01 0.01 67 1017.4
20260505084526 67 136 2.0 8.0 0.00 0.00 0.00 63 1017.2
20260505083028 69 105 2.0 6.0 0.00 0.00 0.00 59 1017.2
20260505081517 71 360 3.0 12.0 0.00 0.00 0.00 46 1017.0
20260505080021 72 162 4.0 11.0 0.00 0.08 0.00 44 1016.9
20260505074511 72 165 4.0 14.0 0.00 0.08 0.00 46 1016.7
20260505073022 72 165 6.0 18.0 0.00 0.08 0.00 46 1016.6
20260505071507 71 360 5.0 15.0 0.00 0.08 0.00 45 1016.5
20260505070001 71 360 5.0 16.0 0.00 0.08 0.00 47 1016.3
20260505064607 70 165 6.0 15.0 0.00 0.08 0.00 48 1016.3
20260505063100 70 360 4.0 15.0 0.00 0.08 0.00 46 1016.2
20260505061557 68 360 3.0 15.0 0.00 0.08 0.00 47 1016.1
20260505060058 68 360 3.0 14.0 0.00 0.08 0.00 50 1016.1
20260505054546 67 205 4.0 14.0 0.00 0.08 0.00 50 1016.1
20260505053044 67 360 5.0 12.0 0.00 0.08 0.00 50 1016.0
20260505051542 67 118 4.0 14.0 0.00 0.08 0.00 49 1015.8
20260505041515 65 188 5.0 15.0 0.00 0.08 0.00 52 1015.6
20260505040016 65 360 4.0 12.0 0.00 0.08 0.00 51 1015.6
20260505034508 65 143 4.0 13.0 0.00 0.08 0.00 52 1015.5
20260505033006 65 166 3.0 10.0 0.00 0.08 0.00 53 1015.4
20260505031502 64 187 2.0 9.0 0.00 0.08 0.00 52 1015.4
20260505030112 64 157 1.0 6.0 0.00 0.08 0.00 52 1015.2
20260505024600 64 161 0.0 9.0 0.00 0.08 0.00 52 1015.3
20260505023054 64 156 1.0 8.0 0.00 0.08 0.00 52 1015.3
20260505021554 65 360 1.0 12.0 0.00 0.08 0.00 53 1015.3
20260505020049 65 124 3.0 8.0 0.00 0.08 0.00 53 1015.3
20260505014603 65 152 1.0 9.0 0.00 0.08 0.00 52 1015.2
20260505013051 65 223 4.0 9.0 0.00 0.08 0.00 54 1015.2
20260505011546 65 360 3.0 10.0 0.00 0.08 0.00 54 1015.2
20260505010043 65 360 3.0 10.0 0.00 0.08 0.00 52 1015.4
20260505004547 65 160 3.0 12.0 0.00 0.08 0.00 52 1015.5
20260505003050 65 137 3.0 10.0 0.00 0.08 0.00 53 1015.6